Location: Arroyo Retuerta
(40.5469°N, 4.3534°W)
Time: 11:26:18
(UTC+00:00)

ASTEX 1 - Pass Details

Date: 01 June 2020
Orbit: 721 x 742 km, 92.7° (Epoch: 06 July)

Event Time Altitude Azimuth Distance (km) Brightness Sun altitude
Rises 20:02:19 0° 171° (S) 3,124 6.2 -4.1°
Reaches altitude 10° 20:04:35 10° 170° (S) 2,209 5.5 -4.4°
Maximum altitude 20:09:28 84° 83° (E) 737 3.4 -5.2°
Drops below altitude 10° 20:14:26 10° 356° (N) 2,238 6.5 -5.9°
Sets 20:16:44 0° 356° (N) 3,167 7.4 -6.3°
